CAPE
0 0 0 0 0 0 0 0 0 0 0 0 0 0 0 139 463 963 1586 985 2487 2452 2058 1622 2277 2424 2363 2095 1905 1623 1369 1189 1116 1298 1384 1440 1568 1479 1580 1449 1138 761 530 441 254 235 192 119 0
0 0 0 0 0 0 0 0 0 0 0 0 0 0 0 236 753 1037 1081 1016 1647 2808 2113 1738 2249 2364 2354 2103 1859 1565 1318 1264 1374 1488 1478 1550 1576 1459 1197 1179 865 662 282 154 157 93 110 0 0
0 0 0 0 0 0 0 0 0 0 0 0 0 0 0 36 581 447 435 969 1559 2831 1924 2024 2282 2288 2350 2084 1752 1481 1272 1300 1556 1597 1544 1578 1511 1435 1336 1024 742 547 82 22 101 77 0 0 0
0 0 0 0 0 0 0 0 0 0 0 0 0 0 0 59 39 0 77 315 276 2327 1951 1856 2211 2234 2235 1986 1687 1412 1246 1453 1633 1586 1673 1550 1340 1431 1388 884 716 509 404 260 76 0 0 0 0
0 0 0 0 0 0 0 0 0 0 0 0 0 0 0 0 0 0 0 313 457 2020 1931 1597 2067 2179 2201 1920 1687 1479 1462 1486 1563 1709 1602 1496 1346 1250 961 815 765 707 598 221 16 0 0 0 4
0 0 0 0 0 0 0 0 0 0 0 0 0 0 0 0 0 0 5 235 772 1869 1837 1512 2014 2105 2042 1930 1747 1575 1472 1496 1555 1629 1527 1369 1139 948 880 826 726 642 509 257 14 0 0 0 96
0 0 0 0 0 0 0 0 0 0 0 0 0 0 0 0 0 0 0 232 651 1814 1952 1411 990 1693 1908 1825 1728 1621 1551 1554 1547 1404 1244 1060 964 888 857 828 807 717 479 127 0 0 0 0 159
0 0 0 0 0 0 0 0 0 0 0 0 0 0 0 0 0 0 0 304 598 1803 2005 1338 846 728 1071 1414 1718 1589 1535 1525 1363 1278 1061 936 917 866 876 895 880 641 303 0 0 0 82 172 359
0 0 0 0 0 0 0 0 0 0 0 0 0 0 0 0 0 0 0 0 440 1251 2108 1336 390 284 298 589 1329 1529 1559 1455 1309 1166 1016 578 112 212 309 252 828 663 262 0 0 252 427 550 725
0 0 0 0 0 0 0 0 0 0 0 0 0 0 0 0 0 0 0 0 123 1202 2134 1451 590 236 241 123 1053 1111 878 806 580 368 410 40 24 0 0 278 879 593 275 28 228 487 963 940 482
0 0 0 0 0 0 0 0 0 0 0 0 0 0 0 0 0 0 0 0 0 805 1746 1630 1245 500 225 88 746 395 583 453 330 224 237 79 61 68 0 295 16 24 120 0 150 436 690 517 569
0 0 0 0 0 0 0 0 0 0 0 0 0 0 0 0 0 0 0 0 0 70 1563 2037 1519 1076 491 166 234 37 111 167 164 183 371 65 507 275 62 161 0 0 0 92 640 610 1089 497 138
0 0 0 0 0 0 0 0 0 0 0 0 0 0 0 0 0 0 0 0 0 919 732 1656 2041 1871 1258 1057 146 1 0 31 75 186 506 107 623 257 162 262 0 0 17 337 800 1278 1052 345 403
0 0 0 0 0 0 0 0 0 0 0 0 0 0 0 0 0 0 0 0 0 58 1993 1810 2354 1685 1966 1556 426 153 195 5 16 137 455 237 559 579 62 1067 181 101 507 438 1057 1475 1224 1248 1261
0 0 0 0 0 0 0 0 0 0 0 0 0 0 0 0 0 0 0 0 0 0 232 2047 2489 2749 2257 1515 973 470 363 91 75 104 481 319 757 999 797 413 262 1022 1179 926 1798 1013 1003 1391 1210
0 0 0 0 0 0 0 0 0 0 0 0 0 0 0 0 0 0 0 0 0 0 148 1501 1866 2203 2355 1741 1290 713 500 711 580 372 442 401 409 986 1199 580 331 1132 1288 804 1659 528 1204 1184 1194
0 1 0 0 0 0 0 0 0 0 0 0 0 0 0 0 0 0 0 0 2 14 0 634 2674 2377 2380 1732 1520 1205 1365 1027 854 1028 375 355 249 507 481 672 1078 1916 958 1442 837 393 1054 1085 1100
0 0 0 0 0 0 0 0 1 0 0 0 0 0 0 0 0 0 88 0 0 153 134 384 804 2718 2852 2236 1426 1254 688 688 416 331 243 308 137 189 338 832 2455 1768 2044 1398 821 1264 1444 971 1158
0 0 0 0 0 0 1 0 0 0 0 0 0 0 0 0 0 0 43 46 152 166 536 1018 610 2188 2884 2589 1290 780 668 691 748 352 334 213 108 172 831 1729 2172 1699 1678 1534 2147 1733 1238 1269 589
0 0 0 0 0 0 0 0 0 0 1 0 0 0 0 0 0 1 52 339 469 463 728 696 1103 1024 2698 2624 1983 854 679 714 705 430 276 127 45 395 803 1639 1637 1780 1792 1865 1429 1342 1018 1097 310
0 0 0 0 0 0 0 0 9 35 2 1 0 0 0 0 0 2 0 81 457 590 417 479 675 1199 2247 2647 2353 1232 895 801 704 478 292 84 81 565 847 1403 1796 1667 1957 1433 1569 1735 1265 680 163
0 0 0 0 0 0 0 0 0 90 82 9 0 0 0 0 0 0 98 272 234 139 544 421 840 1139 2066 2669 2185 1654 748 728 368 538 424 276 226 744 1287 1490 1979 1887 1800 1490 1423 1659 1600 859 48
0 0 0 0 1 11 6 29 2 4 1 0 0 0 0 0 0 0 1 159 183 75 220 495 866 1102 2153 2486 2296 1869 799 509 556 510 478 249 358 1123 1160 1603 2184 1903 1529 1308 1307 1642 1231 747 386
0 0 0 0 0 10 34 13 115 117 1 26 0 0 0 0 0 0 22 227 297 226 69 681 990 1277 2112 2467 2317 1879 1167 730 257 226 319 368 349 1413 1307 1717 2168 1954 1397 1319 1029 1127 884 933 246
0 0 0 0 5 44 51 4 38 67 68 0 0 0 0 0 0 0 0 154 136 155 309 467 1233 1717 1902 2444 2288 1857 1574 836 438 287 391 819 1228 1481 1684 1857 1728 1516 1210 1050 933 700 553 251 26
0 0 6 0 6 0 0 0 53 154 88 9 0 0 0 0 0 7 79 155 51 220 73 529 399 1809 2157 2537 2127 1786 1574 907 431 171 216 499 1110 1381 1755 1400 1412 1248 950 589 326 383 81 13 0
0 0 7 6 6 14 2 9 32 25 23 0 25 0 0 13 16 23 17 30 465 241 342 702 587 1315 1895 2229 2240 1574 1333 899 496 329 85 1108 1096 1836 1683 1238 1034 762 587 348 414 282 35 0 0
2 1 9 14 7 9 0 3 37 55 11 10 15 8 5 1 3 17 4 348 411 364 353 717 750 842 1971 2190 2199 1831 1298 1144 806 240 125 448 860 1481 1158 903 733 599 276 307 324 122 21 0 0
14 30 59 32 59 37 27 0 96 36 24 16 1 0 0 10 13 36 142 35 102 309 346 467 596 767 2053 2114 1960 1824 1492 702 650 391 113 242 532 1271 928 736 523 321 234 364 150 57 3 0 0
5 3 17 362 29 46 77 36 4 5 25 10 9 36 0 5 8 5 30 90 493 681 515 555 823 732 1140 1445 1785 1563 1378 954 447 382 431 646 1080 922 727 630 396 177 240 325 129 94 0 0 0
CIN
0 0 0 0 0 0 0 0 0 0 0 0 0 0 0 -16 -16 -31 -49 -65 -14 -99 -220 -252 -164 -140 -111 -121 -104 -144 -172 -107 -93 -71 -64 -38 -28 -17 -11 -32 -82 -151 -174 -188 -209 -203 -212 -204 0
0 0 0 0 0 0 0 0 0 0 0 0 0 0 0 -16 -21 -28 -58 -57 -5 -108 -175 -215 -126 -104 -91 -92 -91 -113 -172 -111 -63 -62 -61 -39 -17 -17 -34 -49 -102 -163 -236 -249 -227 -243 -236 0 0
0 0 0 0 0 0 0 0 0 0 0 0 0 0 0 -24 -36 -81 -127 -69 -7 -53 -173 -198 -100 -79 -63 -55 -78 -114 -142 -103 -63 -44 -35 -27 -20 -31 -35 -59 -113 -170 -334 -355 -236 -232 0 0 0
0 0 0 0 0 0 0 0 0 0 0 0 0 0 0 -51 -92 -3 -97 -117 -78 -24 -77 -251 -112 -58 -41 -51 -63 -63 -91 -53 -49 -32 -26 -17 -19 -10 -19 -66 -109 -156 -187 -208 -262 -1 0 0 0
0 0 0 0 0 0 0 0 0 0 0 0 0 0 0 0 0 0 0 -136 -64 -32 -49 -233 -152 -52 -40 -39 -34 -57 -60 -37 -27 -22 -25 -18 -26 -22 -43 -58 -86 -111 -127 -209 -249 0 0 0 -38
0 0 0 0 0 0 0 0 0 0 0 0 0 0 0 0 0 0 -44 -151 -32 -93 -23 -63 -130 -59 -43 -37 -32 -32 -50 -40 -10 -20 -31 -37 -56 -54 -47 -69 -67 -107 -140 -187 -112 0 0 0 -210
0 0 0 0 0 0 0 0 0 0 0 0 0 0 0 0 0 0 0 -77 -71 -52 -153 -85 -220 -72 -26 -45 -45 -36 -51 -25 0 -8 -33 -58 -62 -58 -48 -51 -63 -84 -145 -223 0 0 0 0 -185
0 0 0 0 0 0 0 0 0 0 0 0 0 0 0 0 0 0 0 -5 -16 -10 -73 -60 -221 -188 -82 -31 -30 -38 -46 -42 -19 -7 -22 -51 -65 -69 -59 -46 -63 -103 -186 0 0 0 -244 -204 -159
0 0 0 0 0 0 0 0 0 0 0 0 0 0 0 0 0 0 0 0 -4 -5 -31 -71 -117 -176 -193 -110 -32 -37 -11 -46 -22 -8 -16 -73 -244 -205 -162 -163 -85 -112 -193 0 0 -182 -147 -147 -135
0 0 0 0 0 0 0 0 0 0 0 0 0 0 0 0 0 0 0 0 -14 -18 -24 -46 -48 -104 -98 -239 -38 -30 -51 -59 -112 -123 -85 -198 -176 0 0 -145 -68 -114 -187 -143 -192 -158 -110 -115 -66
0 0 0 0 0 0 0 0 0 0 0 0 0 0 0 0 0 0 0 0 0 -13 -39 -5 -66 -84 -83 -146 -120 -130 -84 -106 -129 -142 -152 -210 -87 -110 -1 -151 -151 -78 -236 0 -193 -134 -99 -42 -31
0 0 0 0 0 0 0 0 0 0 0 0 0 0 0 0 0 0 0 0 0 -9 -38 -115 -11 -71 -32 -117 -189 -291 -211 -166 -155 -166 -123 -195 -79 -149 -181 -165 0 0 0 -147 -84 -46 -19 -19 -47
0 0 0 0 0 0 0 0 0 0 0 0 0 0 0 0 0 0 0 0 0 -13 -8 -52 -9 -31 -60 -53 -160 -69 0 -275 -209 -128 -112 -153 -45 -161 -139 -118 0 0 -99 -107 -43 -49 -38 -32 -15
0 0 0 0 0 0 0 0 0 0 0 0 0 0 0 0 0 0 0 0 0 -14 -7 -15 -20 -60 -40 -28 -111 -134 -135 -33 -184 -148 -109 -141 -75 -112 -165 -37 -104 -174 -74 -59 -45 -58 -57 -42 -48
0 0 0 0 0 0 0 0 0 0 0 0 0 0 0 0 0 0 0 0 0 0 -34 -6 -25 -2 -22 -58 -35 -56 -54 -112 -175 -181 -106 -131 -74 -53 -42 -88 -113 -38 -32 -17 -43 -50 -40 -53 -39
0 0 0 0 0 0 0 0 0 0 0 0 0 0 0 0 0 0 0 0 0 0 -13 -3 -13 -5 -16 -45 -33 -23 -28 -29 -32 -93 -138 -112 -95 -60 -52 -61 -104 -40 -36 -35 -39 -49 -62 -63 -46
0 -1 0 0 -1 0 0 0 0 0 0 0 0 0 0 0 0 0 0 0 -13 -43 0 -14 -7 -1 -5 -30 -47 -28 -25 -27 -28 -55 -173 -168 -142 -101 -104 -75 -44 -44 -47 -45 -61 -61 -61 -65 -45
0 0 0 0 0 0 0 0 -2 0 0 0 0 0 0 0 0 0 -54 0 0 -23 -61 -30 -21 -5 -2 -11 -35 -24 -16 -17 -37 -90 -193 -162 -224 -183 -131 -76 -40 -42 -25 -39 -44 -37 -35 -46 -30
0 0 0 0 0 0 0 0 0 0 0 0 0 0 0 0 0 0 -73 -87 -30 -33 -26 -19 -47 -19 -3 0 -12 -1 -53 -10 -5 -41 -151 -214 -279 -175 -70 -28 -43 -41 -25 -30 -22 -22 -20 -13 -28
0 0 0 0 0 0 0 0 0 0 -6 0 0 0 0 0 0 -89 -96 -17 -32 -34 -34 -35 -28 -36 -9 0 -1 -20 -15 -24 -6 -16 -122 -258 -306 -129 -73 -36 -38 -37 -22 -34 -37 -27 -28 -20 -65
0 0 0 0 0 0 0 0 -4 -1 -3 -6 0 0 0 0 0 -80 0 -67 -14 -46 -48 -40 -46 -23 -10 -1 -1 -7 -22 -14 -22 -18 -64 -215 -254 -78 -78 -43 -23 -40 -33 -42 -35 -16 -12 -18 -109
0 0 0 0 0 0 -1 0 0 -20 -2 -13 0 0 0 0 0 0 -38 -7 -19 -30 -52 -58 -40 -23 -6 -10 -1 -1 -12 -5 -35 -22 -103 -130 -171 -40 -31 -33 -22 -37 -30 -40 -35 -20 -8 -20 -190
0 0 0 0 0 0 -6 -1 -1 -26 -12 0 0 0 0 0 0 0 -55 -6 -12 -9 -26 -58 -50 -26 -9 -8 0 -1 -6 0 -29 -3 -39 -103 -104 -19 -22 -23 -18 -21 -34 -43 -32 -14 -13 -32 -31
0 0 0 0 0 -16 -11 -69 -6 -9 -52 -28 0 0 0 0 0 0 -10 -4 -28 -5 -13 -44 -45 -29 -8 -3 0 0 -5 -5 -148 -12 -26 -59 -63 -6 -11 -8 -21 -23 -34 -33 -27 -21 -29 -14 -87
0 0 0 0 -15 -2 -2 -4 -9 -36 -3 0 0 0 0 0 0 0 0 -55 -314 -81 -20 -18 -36 -25 -15 -1 0 0 -1 -12 -9 -4 -10 -10 -4 -3 -13 -19 -25 -26 -24 -16 -27 -47 -41 -75 -168
0 0 0 0 0 0 0 0 0 -79 -82 -32 0 0 0 0 0 -4 -5 -66 -218 -59 -85 -21 -38 -15 -12 0 0 -1 -1 -13 0 -1 -38 -21 -3 -7 -18 -38 -28 -30 -21 -30 -102 -18 -96 -140 0
0 0 -2 -1 0 0 -1 -1 -3 -155 -198 -1 -2 0 0 -23 -102 -126 -60 -48 -20 -30 -47 -20 -42 -23 -17 -11 -1 -12 -5 -16 -7 -7 -104 -32 -29 -16 -16 -23 -28 -29 -8 -28 -17 -24 -100 0 0
-1 -1 0 -1 0 0 0 0 -2 -5 -6 -3 -19 -23 -51 -26 -29 -332 -148 -50 -45 -27 -38 -14 -29 -29 -13 -9 0 0 -3 -12 -18 -5 -14 -5 -17 -11 -27 -66 -50 -26 -33 -18 -26 -65 -87 0 0
-1 -1 -2 -2 -18 -13 0 -77 -4 -11 -8 -1 -1 0 0 -30 -13 -21 -10 -151 -152 -40 0 -13 -36 -34 -15 -10 -11 -2 -2 -25 -10 -11 -59 -94 -59 -21 -11 -28 -31 -50 -33 -10 -35 -88 -33 0 0
0 0 -1 -5 -30 0 -11 -183 -4 -1 -2 -3 -7 -2 0 -15 -34 -7 -17 -17 -4 -4 -3 -6 -18 -33 -34 -22 -32 -21 -9 -28 -39 -5 -4 -12 -26 -17 -24 -36 -36 -64 -11 -1 -20 -63 0 0 0
Wind_Speed
nan nan nan nan nan nan nan nan nan nan nan nan nan nan nan 20 42 17 27 15 33 30 20 18 20 26 28 38 34 39 37 24 23 15 15 15 15 16 14 13 14 14 13 15 16 16 17 16 nan
nan nan nan nan nan nan nan nan nan nan nan nan nan nan nan 48 57 41 31 24 32 29 26 24 21 22 27 29 31 36 39 31 29 17 15 16 15 16 16 14 15 17 16 15 16 nan 17 nan nan
nan nan nan nan nan nan nan nan nan nan nan nan nan nan nan nan 55 32 25 31 37 29 32 34 27 29 32 36 36 37 42 40 32 20 16 16 16 17 15 14 16 17 nan nan 16 nan nan nan nan
nan nan nan nan nan nan nan nan nan nan nan nan nan nan nan nan nan nan nan 31 25 35 33 37 34 30 33 37 37 40 39 35 30 24 19 18 17 15 15 14 16 17 18 19 nan nan nan nan nan
nan nan nan nan nan nan nan nan nan nan nan nan nan nan nan nan nan nan nan 34 26 42 34 38 41 33 36 39 34 21 26 29 26 26 22 17 17 16 16 14 15 18 19 18 nan nan nan nan nan
nan nan nan nan nan nan nan nan nan nan nan nan nan nan nan nan nan nan nan 40 35 52 35 37 40 37 39 35 35 29 31 31 27 28 23 21 17 16 16 16 15 19 20 17 nan nan nan nan nan
nan nan nan nan nan nan nan nan nan nan nan nan nan nan nan nan nan nan nan 40 34 55 39 40 37 36 36 38 33 33 35 31 29 27 26 25 20 17 16 16 16 18 20 17 nan nan nan nan 18
nan nan nan nan nan nan nan nan nan nan nan nan nan nan nan nan nan nan nan 41 37 51 38 43 37 33 31 23 26 28 31 32 28 29 28 27 22 18 16 17 16 18 19 nan nan nan nan 18 19
nan nan nan nan nan nan nan nan nan nan nan nan nan nan nan nan nan nan nan nan 33 44 39 41 36 32 23 22 25 28 25 30 29 26 27 29 21 17 19 14 22 18 17 nan nan 15 16 17 17
nan nan nan nan nan nan nan nan nan nan nan nan nan nan nan nan nan nan nan nan 36 48 40 40 37 34 27 26 33 27 26 27 24 24 24 nan nan nan nan 23 23 19 16 nan 13 14 17 18 19
nan nan nan nan nan nan nan nan nan nan nan nan nan nan nan nan nan nan nan nan nan 51 41 33 38 39 32 nan 34 30 33 30 26 25 24 nan nan nan nan 23 nan nan 17 nan 15 15 18 21 16
nan nan nan nan nan nan nan nan nan nan nan nan nan nan nan nan nan nan nan nan nan nan 53 47 47 43 35 39 39 nan 32 33 32 29 27 nan 20 25 nan 23 nan nan nan nan 17 19 21 22 17
nan nan nan nan nan nan nan nan nan nan nan nan nan nan nan nan nan nan nan nan nan 59 44 55 37 27 36 42 42 nan nan nan nan 36 32 24 25 27 24 23 nan nan nan 21 19 23 23 20 16
nan nan nan nan nan nan nan nan nan nan nan nan nan nan nan nan nan nan nan nan nan nan 45 46 54 39 38 44 43 41 34 nan nan 39 38 26 29 30 nan 24 24 27 24 26 23 25 24 21 20
nan nan nan nan nan nan nan nan nan nan nan nan nan nan nan nan nan nan nan nan nan nan 53 49 56 49 38 45 43 43 38 nan nan 41 41 30 31 31 24 27 24 27 26 26 28 29 23 23 19
nan nan nan nan nan nan nan nan nan nan nan nan nan nan nan nan nan nan nan nan nan nan 52 54 50 52 43 40 45 41 41 41 43 44 42 36 32 33 27 26 24 28 28 27 26 28 26 23 21
nan nan nan nan nan nan nan nan nan nan nan nan nan nan nan nan nan nan nan nan nan nan nan 52 50 53 49 42 43 45 42 43 45 46 42 39 34 34 28 24 26 30 27 27 28 26 27 27 22
nan nan nan nan nan nan nan nan nan nan nan nan nan nan nan nan nan nan nan nan nan 47 48 50 56 53 53 50 46 43 47 46 42 45 44 41 38 35 27 22 28 33 29 29 28 29 25 27 23
nan nan nan nan nan nan nan nan nan nan nan nan nan nan nan nan nan nan nan nan 32 39 48 51 55 56 59 56 51 47 49 46 43 39 41 40 32 34 32 28 34 32 32 27 30 27 28 22 22
nan nan nan nan nan nan nan nan nan nan nan nan nan nan nan nan nan nan nan 40 40 34 42 48 54 58 60 59 55 58 55 47 45 42 35 38 nan 35 38 30 34 32 26 37 31 26 25 28 25
nan nan nan nan nan nan nan nan nan nan nan nan nan nan nan nan nan nan nan nan 47 39 35 37 45 56 60 57 59 59 54 47 36 47 37 nan nan 32 37 32 34 34 28 30 28 30 30 25 27
nan nan nan nan nan nan nan nan nan nan nan nan nan nan nan nan nan nan nan 40 44 46 42 40 37 48 59 62 61 57 53 48 58 49 40 37 34 33 36 34 34 36 36 31 32 30 26 24 nan
nan nan nan nan nan nan nan nan nan nan nan nan nan nan nan nan nan nan nan 39 36 nan 46 43 42 42 54 65 63 63 57 52 57 33 33 39 36 38 38 38 42 42 39 33 37 28 27 25 24
nan nan nan nan nan nan nan nan 3 19 nan nan nan nan nan nan nan nan nan 30 29 27 nan 42 44 44 51 62 64 59 56 51 41 37 44 38 42 45 37 42 51 46 43 35 34 29 27 22 22
nan nan nan nan nan nan nan nan nan nan nan nan nan nan nan nan nan nan nan 37 40 28 26 42 46 44 47 56 64 61 60 60 53 50 24 48 43 46 44 51 51 50 46 42 39 26 28 24 nan
nan nan nan nan nan nan nan nan nan 32 nan nan nan nan nan nan nan nan nan 29 nan 22 nan 48 52 44 47 47 60 62 61 68 63 43 43 50 49 50 49 56 51 52 47 46 26 29 nan nan nan
nan nan nan nan nan nan nan nan nan nan nan nan nan nan nan nan nan nan nan nan 21 33 45 31 59 57 41 41 54 64 60 72 71 54 nan 38 53 57 48 56 52 61 45 39 25 32 nan nan nan
nan nan nan nan nan nan nan nan nan nan nan nan nan nan nan nan nan nan nan 26 24 22 30 40 46 53 34 35 45 59 59 61 66 54 48 38 58 51 54 59 54 57 50 23 25 32 nan nan nan
nan nan nan nan nan nan nan nan nan nan nan nan nan nan nan nan nan nan 34 nan 27 14 31 34 46 51 34 33 33 50 58 58 73 63 54 39 55 57 53 48 43 30 31 31 23 nan nan nan nan
nan nan nan 26 nan nan nan nan nan nan nan nan nan nan nan nan nan nan nan nan 37 25 25 33 44 50 35 28 31 43 56 55 45 62 34 46 48 41 53 65 54 43 23 15 22 nan nan nan nan
Wind_Direction
nan nan nan nan nan nan nan nan nan nan nan nan nan nan nan 232 253 234 249 249 274 284 281 280 273 278 274 274 281 279 279 277 273 265 268 267 272 278 276 284 291 289 294 301 308 310 312 320 nan
nan nan nan nan nan nan nan nan nan nan nan nan nan nan nan 244 259 258 249 252 275 279 278 283 273 277 284 296 294 262 276 272 284 265 270 270 273 277 286 292 290 291 295 295 301 nan 310 nan nan
nan nan nan nan nan nan nan nan nan nan nan nan nan nan nan nan 250 254 253 258 265 274 286 275 277 280 292 298 300 274 258 268 279 263 261 262 268 272 279 286 286 288 nan nan 297 nan nan nan nan
nan nan nan nan nan nan nan nan nan nan nan nan nan nan nan nan nan nan nan 238 258 281 284 286 283 282 286 288 294 281 237 259 269 262 257 256 263 269 274 282 283 286 289 292 nan nan nan nan nan
nan nan nan nan nan nan nan nan nan nan nan nan nan nan nan nan nan nan nan 255 255 275 274 283 285 286 284 280 284 259 255 266 268 261 261 260 260 266 270 275 279 284 283 288 nan nan nan nan nan
nan nan nan nan nan nan nan nan nan nan nan nan nan nan nan nan nan nan nan 251 248 272 274 276 281 283 290 288 275 254 264 269 260 260 265 264 262 264 267 275 279 283 286 291 nan nan nan nan nan
nan nan nan nan nan nan nan nan nan nan nan nan nan nan nan nan nan nan nan 263 249 273 271 275 278 280 284 283 268 260 262 261 259 256 262 266 267 267 269 276 281 283 285 292 nan nan nan nan 330
nan nan nan nan nan nan nan nan nan nan nan nan nan nan nan nan nan nan nan 257 267 272 271 274 277 285 292 289 257 257 261 266 263 263 264 266 271 272 270 273 279 284 285 nan nan nan nan 333 339
nan nan nan nan nan nan nan nan nan nan nan nan nan nan nan nan nan nan nan nan 246 266 275 272 276 277 283 268 247 254 265 273 267 267 270 266 258 265 277 282 286 283 286 nan nan 318 326 329 340
nan nan nan nan nan nan nan nan nan nan nan nan nan nan nan nan nan nan nan nan 260 259 273 272 275 272 271 262 260 252 258 254 259 257 258 nan nan nan nan 278 280 279 282 nan 311 326 315 324 330
nan nan nan nan nan nan nan nan nan nan nan nan nan nan nan nan nan nan nan nan nan 263 251 265 270 266 266 nan 259 258 257 249 246 255 254 nan nan nan nan 256 nan nan 284 nan 293 302 306 325 330
nan nan nan nan nan nan nan nan nan nan nan nan nan nan nan nan nan nan nan nan nan nan 261 245 238 248 250 249 256 nan 264 263 253 251 253 nan 236 256 nan 262 nan nan nan nan 291 298 302 294 307
nan nan nan nan nan nan nan nan nan nan nan nan nan nan nan nan nan nan nan nan nan 245 238 263 241 236 251 248 256 nan nan nan nan 255 253 242 241 252 250 252 nan nan nan 278 278 286 288 290 315
nan nan nan nan nan nan nan nan nan nan nan nan nan nan nan nan nan nan nan nan nan nan 247 242 260 248 233 246 255 256 254 nan nan 253 257 247 243 250 nan 255 253 264 265 272 269 271 286 284 293
nan nan nan nan nan nan nan nan nan nan nan nan nan nan nan nan nan nan nan nan nan nan 237 242 248 250 238 239 251 255 255 nan nan 247 255 252 251 252 252 259 260 264 260 261 271 272 277 282 291
nan nan nan nan nan nan nan nan nan nan nan nan nan nan nan nan nan nan nan nan nan nan 242 240 240 248 243 235 242 249 254 250 246 247 251 255 251 255 251 255 262 269 267 266 269 271 274 282 288
nan nan nan nan nan nan nan nan nan nan nan nan nan nan nan nan nan nan nan nan nan nan nan 236 239 240 244 237 232 244 250 249 249 246 250 254 253 256 253 252 269 269 268 271 269 268 275 280 285
nan nan nan nan nan nan nan nan nan nan nan nan nan nan nan nan nan nan nan nan nan 244 241 237 232 234 238 239 233 235 248 251 249 250 251 255 254 255 252 250 261 263 265 268 271 269 279 280 293
nan nan nan nan nan nan nan nan nan nan nan nan nan nan nan nan nan nan nan nan 271 248 243 235 236 228 232 233 236 232 238 244 249 251 258 258 258 268 257 247 255 262 265 272 273 270 269 277 288
nan nan nan nan nan nan nan nan nan nan nan nan nan nan nan nan nan nan nan 287 279 269 246 237 232 228 228 228 229 234 241 226 241 238 248 260 nan 264 263 252 258 259 258 271 269 276 270 282 286
nan nan nan nan nan nan nan nan nan nan nan nan nan nan nan nan nan nan nan nan 276 266 260 246 238 230 223 227 225 232 232 239 215 238 230 nan nan 269 269 257 255 263 260 265 273 269 277 272 282
nan nan nan nan nan nan nan nan nan nan nan nan nan nan nan nan nan nan nan 279 264 259 260 252 243 236 225 224 222 227 230 238 244 243 237 242 257 266 265 259 256 264 265 263 257 271 267 272 nan
nan nan nan nan nan nan nan nan nan nan nan nan nan nan nan nan nan nan nan 291 274 nan 248 252 240 232 232 225 221 222 222 223 243 228 240 243 248 256 259 259 255 261 262 260 261 262 267 275 274
nan nan nan nan nan nan nan nan 118 235 nan nan nan nan nan nan nan nan nan 294 264 248 nan 238 231 232 235 227 222 219 222 219 233 239 231 246 249 249 258 261 253 256 258 253 250 256 266 261 280
nan nan nan nan nan nan nan nan nan nan nan nan nan nan nan nan nan nan nan 283 241 202 224 229 225 228 236 230 225 218 218 221 232 237 225 250 244 247 251 252 252 249 251 251 263 251 262 261 nan
nan nan nan nan nan nan nan nan nan 264 nan nan nan nan nan nan nan nan nan 307 nan 324 nan 229 220 220 235 231 226 222 215 225 231 231 219 242 246 244 247 253 259 246 251 251 240 249 nan nan nan
nan nan nan nan nan nan nan nan nan nan nan nan nan nan nan nan nan nan nan nan 274 266 245 225 213 210 230 230 226 221 217 226 234 249 nan 217 239 246 253 261 272 241 244 253 239 248 nan nan nan
nan nan nan nan nan nan nan nan nan nan nan nan nan nan nan nan nan nan nan 214 250 242 249 228 218 219 227 231 225 223 220 227 230 232 256 255 242 245 247 259 261 248 260 231 238 248 nan nan nan
nan nan nan nan nan nan nan nan nan nan nan nan nan nan nan nan nan nan 283 nan 270 207 229 220 210 211 231 235 222 223 220 225 225 232 234 258 247 253 256 259 254 258 245 241 225 nan nan nan nan
nan nan nan 291 nan nan nan nan nan nan nan nan nan nan nan nan nan nan nan nan 263 271 261 214 209 209 215 240 230 229 223 226 215 231 233 225 249 249 254 253 262 266 231 222 246 nan nan nan nan